Date String (YYYY-MM-DD hh:mm:ss) UTC,Instrument flags,absolute air pressure of the measurement (hPa),sample flow rate (lpm),inlet stack bypass flow (lpm),air temperature of the measurement (°C),ambient temperature measured by the external sensor (°C),aerosol sample conditioner tube jacket temperature (°C),OPC LED temperature (°C),internal box temperature (°C),relative humidity of the measurement (%),span deviation,mass concentration of particles derived from Lorenz-Mie calculation of OPC scattering (μg/m³),mass concentration of particles derived from Lorenz-Mie calculation of OPC scattering (μg/m³),mass concentration of particles derived from Lorenz-Mie calculation of OPC scattering (μg/m³)
DateTimeUTC,F1_M11,P_M11,Q1_M11,Q2_M11,T1_M11,T2_M11,T3_M11,T4_M11,T5_M11,U1_M11,ZSPAN_M11,X2_M11,X0_M11,X1_M11
2024-05-11 05:00:00,SystemResetWarning,0832.7,5.00,000.00,025.9,025.3,000.0,034.2,027.7,019.0,0000.0,0003.47,0005.46,0003.23
2024-05-11 05:01:00,SystemResetWarning,0832.7,5.01,000.00,025.9,025.2,000.0,034.2,027.6,019.0,0000.0,0003.44,0005.17,0003.22
2024-05-11 05:02:00,SystemResetWarning,0832.7,5.00,000.00,025.9,025.2,000.0,034.2,027.6,019.0,0000.0,0003.42,0005.04,0003.21
2024-05-11 05:03:00,SystemResetWarning,0832.7,5.01,000.00,025.9,025.2,000.0,034.2,027.6,019.0,0000.0,0003.40,0004.95,0003.20
2024-05-11 05:04:00,SystemResetWarning,0832.6,5.00,000.00,025.9,025.2,000.0,034.2,027.6,019.0,0000.0,0003.39,0004.99,0003.19
2024-05-11 05:05:00,SystemResetWarning,0832.7,5.00,000.00,025.9,025.2,000.0,034.2,027.6,019.0,0000.0,0003.37,0004.83,0003.18
2024-05-11 05:06:00,SystemResetWarning,0832.7,5.00,000.00,025.9,025.2,000.0,034.2,027.6,019.0,0000.0,0003.36,0004.81,0003.18
2024-05-11 05:07:00,SystemResetWarning,0832.7,5.00,000.00,025.9,025.2,000.0,034.2,027.6,019.0,0000.0,0003.37,0004.84,0003.19
2024-05-11 05:08:00,SystemResetWarning,0832.7,4.99,000.00,025.9,025.2,000.0,034.2,027.6,018.9,0000.0,0003.37,0004.84,0003.18
2024-05-11 05:09:00,SystemResetWarning,0832.7,5.00,000.00,025.9,025.2,000.0,034.2,027.6,018.9,0000.0,0003.36,0004.81,0003.18
2024-05-11 05:10:00,SystemResetWarning,0832.7,5.01,000.00,025.9,025.2,000.0,034.2,027.6,018.9,0000.0,0003.34,0004.78,0003.17
2024-05-11 05:11:00,SystemResetWarning,0832.7,5.01,000.00,025.9,025.2,000.0,034.2,027.6,018.9,0000.0,0003.31,0004.59,0003.17
2024-05-11 05:12:00,SystemResetWarning,0832.7,5.00,000.00,025.9,025.2,000.0,034.2,027.6,018.9,0000.0,0003.31,0004.59,0003.16
2024-05-11 05:13:00,SystemResetWarning,0832.7,4.99,000.00,025.9,025.2,000.0,034.2,027.6,018.9,0000.0,0003.34,0004.65,0003.16
2024-05-11 05:14:00,SystemResetWarning,0832.7,5.00,000.00,025.9,025.2,000.0,034.2,027.6,018.9,0000.0,0003.37,0004.72,0003.17
2024-05-11 05:15:00,SystemResetWarning,0832.7,5.00,000.00,025.9,025.2,000.0,034.1,027.6,018.9,0000.0,0003.36,0004.55,0003.17
2024-05-11 05:16:00,SystemResetWarning,0832.7,5.01,000.00,025.9,025.2,000.0,034.1,027.6,018.8,0000.0,0003.38,0004.60,0003.17
2024-05-11 05:17:00,SystemResetWarning,0832.7,5.01,000.00,025.8,025.2,000.0,034.1,027.6,018.8,0000.0,0003.37,0004.58,0003.16
2024-05-11 05:18:00,SystemResetWarning,0832.7,5.00,000.00,025.8,025.2,000.0,034.1,027.6,018.8,0000.0,0003.33,0004.73,0003.14
2024-05-11 05:19:00,SystemResetWarning,0832.7,5.00,000.00,025.8,025.2,000.0,034.1,027.6,018.8,0000.0,0003.32,0005.09,0003.14
2024-05-11 05:20:00,SystemResetWarning,0832.7,4.99,000.00,025.8,025.2,000.0,034.1,027.6,018.8,0000.0,0003.32,0005.07,0003.14
2024-05-11 05:21:00,SystemResetWarning,0832.7,4.99,000.00,025.8,025.2,000.0,034.1,027.6,018.7,0000.0,0003.31,0004.99,0003.14
2024-05-11 05:22:00,SystemResetWarning,0832.7,5.00,000.00,025.8,025.2,000.0,034.1,027.6,018.7,0000.0,0003.31,0005.04,0003.13
2024-05-11 05:23:00,SystemResetWarning,0832.7,5.01,000.00,025.8,025.2,000.0,034.1,027.6,018.7,0000.0,0003.30,0005.16,0003.12
2024-05-11 05:24:00,SystemResetWarning,0832.7,5.01,000.00,025.8,025.2,000.0,034.1,027.6,018.7,0000.0,0003.28,0005.13,0003.12
2024-05-11 05:25:00,SystemResetWarning,0832.7,5.01,000.00,025.8,025.2,000.0,034.1,027.6,018.7,0000.0,0003.26,0006.13,0003.10
2024-05-11 05:26:00,SystemResetWarning,0832.7,5.00,000.00,025.8,025.2,000.0,034.1,027.6,018.6,0000.0,0003.26,0006.18,0003.08
2024-05-11 05:27:00,SystemResetWarning,0832.7,5.00,000.00,025.8,025.2,000.0,034.1,027.6,018.6,0000.0,0003.23,0006.09,0003.05
2024-05-11 05:28:00,SystemResetWarning,0832.7,5.00,000.00,025.8,025.2,000.0,034.1,027.6,018.6,0000.0,0003.23,0006.39,0003.04
2024-05-11 05:29:00,SystemResetWarning,0832.7,5.00,000.00,025.8,025.2,000.0,034.1,027.6,018.6,0000.0,0003.23,0006.07,0003.03
2024-05-11 05:30:00,SystemResetWarning,0832.6,5.00,000.00,025.8,025.2,000.0,034.1,027.6,018.6,0000.0,0003.22,0005.67,0003.02
2024-05-11 05:31:00,SystemResetWarning,0832.7,5.00,000.00,025.8,025.2,000.0,034.1,027.6,018.5,0000.0,0003.22,0005.70,0003.00
2024-05-11 05:32:00,SystemResetWarning,0832.7,5.00,000.00,025.8,025.2,000.0,034.1,027.6,018.5,0000.0,0003.23,0005.78,0002.97
2024-05-11 05:33:00,SystemResetWarning,0832.7,5.00,000.00,025.8,025.2,000.0,034.1,027.6,018.5,0000.0,0003.23,0005.66,0002.96
2024-05-11 05:34:00,SystemResetWarning,0832.6,5.01,000.00,025.8,025.2,000.0,034.1,027.6,018.5,0000.0,0003.20,0005.45,0002.95
2024-05-11 05:35:00,SystemResetWarning,0832.7,5.00,000.00,025.8,025.2,000.0,034.1,027.6,018.5,0000.0,0003.19,0005.33,0002.94
2024-05-11 05:36:00,SystemResetWarning,0832.6,5.00,000.00,025.8,025.2,000.0,034.1,027.6,018.5,0000.0,0003.17,0004.40,0002.94
2024-05-11 05:37:00,SystemResetWarning,0832.7,5.00,000.00,025.8,025.2,000.0,034.1,027.6,018.5,0000.0,0003.16,0004.23,0002.94
2024-05-11 05:38:00,SystemResetWarning,0832.6,5.00,000.00,025.8,025.1,000.0,034.1,027.6,018.5,0000.0,0003.17,0004.31,0002.94
2024-05-11 05:39:00,SystemResetWarning,0832.6,4.99,000.00,025.8,025.2,000.0,034.1,027.5,018.4,0000.0,0003.16,0003.97,0002.92
2024-05-11 05:40:00,SystemResetWarning,0832.6,5.00,000.00,025.8,025.2,000.0,034.1,027.6,018.4,0000.0,0003.15,0003.95,0002.92
2024-05-11 05:41:00,SystemResetWarning,0832.6,5.00,000.00,025.8,025.2,000.0,034.1,027.6,018.4,0000.0,0003.16,0004.03,0002.91
2024-05-11 05:42:00,SystemResetWarning,0832.6,5.00,000.00,025.8,025.2,000.0,034.1,027.5,018.4,0000.0,0003.15,0004.07,0002.90
2024-05-11 05:43:00,SystemResetWarning,0832.6,5.00,000.00,025.8,025.2,000.0,034.1,027.6,018.4,0000.0,0003.12,0003.97,0002.88
2024-05-11 05:44:00,SystemResetWarning,0832.6,5.00,000.00,025.8,025.2,000.0,034.1,027.6,018.4,0000.0,0003.10,0003.94,0002.87
2024-05-11 05:45:00,SystemResetWarning,0832.5,5.00,000.00,025.8,025.2,000.0,034.1,027.6,018.4,0000.0,0003.11,0004.01,0002.87
2024-05-11 05:46:00,SystemResetWarning,0832.5,5.00,000.00,025.8,025.1,000.0,034.1,027.5,018.4,0000.0,0003.13,0004.08,0002.86
2024-05-11 05:47:00,SystemResetWarning,0832.5,5.00,000.00,025.8,025.1,000.0,034.1,027.6,018.3,0000.0,0003.11,0004.08,0002.83
2024-05-11 05:48:00,SystemResetWarning,0832.5,5.00,000.00,025.8,025.1,000.0,034.1,027.5,018.3,0000.0,0003.09,0004.00,0002.81
2024-05-11 05:49:00,SystemResetWarning,0832.6,5.00,000.00,025.8,025.1,000.0,034.1,027.5,018.3,0000.0,0003.06,0003.98,0002.80
2024-05-11 05:50:00,SystemResetWarning,0832.5,5.00,000.00,025.8,025.1,000.0,034.1,027.6,018.3,0000.0,0003.06,0004.00,0002.79
2024-05-11 05:51:00,SystemResetWarning,0832.6,5.00,000.00,025.8,025.1,000.0,034.1,027.6,018.3,0000.0,0003.08,0004.10,0002.78
2024-05-11 05:52:00,SystemResetWarning,0832.5,5.00,000.00,025.8,025.1,000.0,034.1,027.5,018.2,0000.0,0003.06,0004.11,0002.77
2024-05-11 05:53:00,SystemResetWarning,0832.5,5.00,000.00,025.8,025.1,000.0,034.1,027.5,018.2,0000.0,0003.05,0004.02,0002.76
2024-05-11 05:54:00,SystemResetWarning,0832.5,5.00,000.00,025.8,025.1,000.0,034.1,027.5,018.1,0000.0,0003.06,0004.03,0002.77
2024-05-11 05:55:00,SystemResetWarning,0832.5,5.00,000.00,025.8,025.1,000.0,034.1,027.5,018.1,0000.0,0003.05,0003.99,0002.76
2024-05-11 05:56:00,SystemResetWarning,0832.5,5.00,000.00,025.8,025.1,000.0,034.1,027.5,018.1,0000.0,0003.03,0003.91,0002.75
2024-05-11 05:57:00,SystemResetWarning,0832.5,4.99,000.00,025.8,025.1,000.0,034.1,027.5,018.1,0000.0,0002.99,0003.81,0002.75
2024-05-11 05:58:00,SystemResetWarning,0832.5,5.00,000.00,025.8,025.1,000.0,034.1,027.5,018.1,0000.0,0003.00,0003.80,0002.76
2024-05-11 05:59:00,SystemResetWarning,0832.5,4.99,000.00,025.8,025.1,000.0,034.1,027.5,018.0,0000.0,0003.02,0003.85,0002.75
